Index of /20260430/WXO-DD/model_rdps/10km/18/016
Name Last modified Size Description
Parent Directory -
20260430T18Z_MSC_RDPS_AbsoluteVorticity_IsbL-0250_RLatLon0.09_PT016H.grib2 2026-04-30 20:43 610K
20260430T18Z_MSC_RDPS_AbsoluteVorticity_IsbL-0500_RLatLon0.09_PT016H.grib2 2026-04-30 20:43 557K
20260430T18Z_MSC_RDPS_AbsoluteVorticity_IsbL-0700_RLatLon0.09_PT016H.grib2 2026-04-30 20:43 625K
20260430T18Z_MSC_RDPS_AbsoluteVorticity_IsbL-0850_RLatLon0.09_PT016H.grib2 2026-04-30 20:43 776K
20260430T18Z_MSC_RDPS_AirTemp_AGL-120m_RLatLon0.09_PT016H.grib2 2026-04-30 20:43 378K
20260430T18Z_MSC_RDPS_AirTemp_AGL-2m_RLatLon0.09_PT016H.grib2 2026-04-30 20:43 632K
20260430T18Z_MSC_RDPS_AirTemp_AGL-40m_RLatLon0.09_PT016H.grib2 2026-04-30 20:43 397K
20260430T18Z_MSC_RDPS_AirTemp_AGL-80m_RLatLon0.09_PT016H.grib2 2026-04-30 20:43 386K
20260430T18Z_MSC_RDPS_AirTemp_IsbL-0001_RLatLon0.09_PT016H.grib2 2026-04-30 20:43 255K
20260430T18Z_MSC_RDPS_AirTemp_IsbL-0005_RLatLon0.09_PT016H.grib2 2026-04-30 20:43 285K
20260430T18Z_MSC_RDPS_AirTemp_IsbL-0010_RLatLon0.09_PT016H.grib2 2026-04-30 20:43 295K
20260430T18Z_MSC_RDPS_AirTemp_IsbL-0020_RLatLon0.09_PT016H.grib2 2026-04-30 20:43 404K
20260430T18Z_MSC_RDPS_AirTemp_IsbL-0030_RLatLon0.09_PT016H.grib2 2026-04-30 20:43 330K
20260430T18Z_MSC_RDPS_AirTemp_IsbL-0050_RLatLon0.09_PT016H.grib2 2026-04-30 20:43 309K
20260430T18Z_MSC_RDPS_AirTemp_IsbL-0100_RLatLon0.09_PT016H.grib2 2026-04-30 20:43 421K
20260430T18Z_MSC_RDPS_AirTemp_IsbL-0150_RLatLon0.09_PT016H.grib2 2026-04-30 20:43 419K
20260430T18Z_MSC_RDPS_AirTemp_IsbL-0175_RLatLon0.09_PT016H.grib2 2026-04-30 20:43 412K
20260430T18Z_MSC_RDPS_AirTemp_IsbL-0200_RLatLon0.09_PT016H.grib2 2026-04-30 20:43 416K
20260430T18Z_MSC_RDPS_AirTemp_IsbL-0225_RLatLon0.09_PT016H.grib2 2026-04-30 20:43 417K
20260430T18Z_MSC_RDPS_AirTemp_IsbL-0250_RLatLon0.09_PT016H.grib2 2026-04-30 20:43 424K
20260430T18Z_MSC_RDPS_AirTemp_IsbL-0275_RLatLon0.09_PT016H.grib2 2026-04-30 20:43 403K
20260430T18Z_MSC_RDPS_AirTemp_IsbL-0300_RLatLon0.09_PT016H.grib2 2026-04-30 20:43 410K
20260430T18Z_MSC_RDPS_AirTemp_IsbL-0350_RLatLon0.09_PT016H.grib2 2026-04-30 20:43 423K
20260430T18Z_MSC_RDPS_AirTemp_IsbL-0400_RLatLon0.09_PT016H.grib2 2026-04-30 20:43 424K
20260430T18Z_MSC_RDPS_AirTemp_IsbL-0450_RLatLon0.09_PT016H.grib2 2026-04-30 20:43 395K
20260430T18Z_MSC_RDPS_AirTemp_IsbL-0500_RLatLon0.09_PT016H.grib2 2026-04-30 20:43 405K
20260430T18Z_MSC_RDPS_AirTemp_IsbL-0550_RLatLon0.09_PT016H.grib2 2026-04-30 20:43 424K
20260430T18Z_MSC_RDPS_AirTemp_IsbL-0600_RLatLon0.09_PT016H.grib2 2026-04-30 20:43 445K
20260430T18Z_MSC_RDPS_AirTemp_IsbL-0650_RLatLon0.09_PT016H.grib2 2026-04-30 20:43 460K
20260430T18Z_MSC_RDPS_AirTemp_IsbL-0700_RLatLon0.09_PT016H.grib2 2026-04-30 20:43 484K
20260430T18Z_MSC_RDPS_AirTemp_IsbL-0750_RLatLon0.09_PT016H.grib2 2026-04-30 20:43 519K
20260430T18Z_MSC_RDPS_AirTemp_IsbL-0800_RLatLon0.09_PT016H.grib2 2026-04-30 20:43 449K
20260430T18Z_MSC_RDPS_AirTemp_IsbL-0850_RLatLon0.09_PT016H.grib2 2026-04-30 20:43 499K
20260430T18Z_MSC_RDPS_AirTemp_IsbL-0875_RLatLon0.09_PT016H.grib2 2026-04-30 20:43 519K
20260430T18Z_MSC_RDPS_AirTemp_IsbL-0900_RLatLon0.09_PT016H.grib2 2026-04-30 20:43 527K
20260430T18Z_MSC_RDPS_AirTemp_IsbL-0925_RLatLon0.09_PT016H.grib2 2026-04-30 20:43 527K
20260430T18Z_MSC_RDPS_AirTemp_IsbL-0950_RLatLon0.09_PT016H.grib2 2026-04-30 20:43 529K
20260430T18Z_MSC_RDPS_AirTemp_IsbL-0970_RLatLon0.09_PT016H.grib2 2026-04-30 20:43 521K
20260430T18Z_MSC_RDPS_AirTemp_IsbL-0985_RLatLon0.09_PT016H.grib2 2026-04-30 20:43 508K
20260430T18Z_MSC_RDPS_AirTemp_IsbL-1000_RLatLon0.09_PT016H.grib2 2026-04-30 20:43 494K
20260430T18Z_MSC_RDPS_AirTemp_IsbL-1015_RLatLon0.09_PT016H.grib2 2026-04-30 20:43 492K
20260430T18Z_MSC_RDPS_Albedo_Sfc_RLatLon0.09_PT016H.grib2 2026-04-30 20:43 159K
20260430T18Z_MSC_RDPS_CAPE_Sfc_RLatLon0.09_PT016H.grib2 2026-04-30 20:43 1.5M
20260430T18Z_MSC_RDPS_CIN_Sfc_RLatLon0.09_PT016H.grib2 2026-04-30 20:43 1.1M
20260430T18Z_MSC_RDPS_CloudWater_EAtm_RLatLon0.09_PT016H.grib2 2026-04-30 20:43 218K
20260430T18Z_MSC_RDPS_ConvectivePrecip-Accum_Sfc_RLatLon0.09_PT016H.grib2 2026-04-30 20:43 716K
20260430T18Z_MSC_RDPS_DewPointDepression_AGL-2m_RLatLon0.09_PT016H.grib2 2026-04-30 20:43 394K
20260430T18Z_MSC_RDPS_DewPointDepression_IsbL-0001_RLatLon0.09_PT016H.grib2 2026-04-30 20:43 193
20260430T18Z_MSC_RDPS_DewPointDepression_IsbL-0005_RLatLon0.09_PT016H.grib2 2026-04-30 20:43 193
20260430T18Z_MSC_RDPS_DewPointDepression_IsbL-0010_RLatLon0.09_PT016H.grib2 2026-04-30 20:43 193
20260430T18Z_MSC_RDPS_DewPointDepression_IsbL-0020_RLatLon0.09_PT016H.grib2 2026-04-30 20:43 193
20260430T18Z_MSC_RDPS_DewPointDepression_IsbL-0030_RLatLon0.09_PT016H.grib2 2026-04-30 20:43 193
20260430T18Z_MSC_RDPS_DewPointDepression_IsbL-0050_RLatLon0.09_PT016H.grib2 2026-04-30 20:43 80K
20260430T18Z_MSC_RDPS_DewPointDepression_IsbL-0100_RLatLon0.09_PT016H.grib2 2026-04-30 20:43 129K
20260430T18Z_MSC_RDPS_DewPointDepression_IsbL-0150_RLatLon0.09_PT016H.grib2 2026-04-30 20:43 148K
20260430T18Z_MSC_RDPS_DewPointDepression_IsbL-0175_RLatLon0.09_PT016H.grib2 2026-04-30 20:43 180K
20260430T18Z_MSC_RDPS_DewPointDepression_IsbL-0200_RLatLon0.09_PT016H.grib2 2026-04-30 20:43 217K
20260430T18Z_MSC_RDPS_DewPointDepression_IsbL-0225_RLatLon0.09_PT016H.grib2 2026-04-30 20:43 258K
20260430T18Z_MSC_RDPS_DewPointDepression_IsbL-0250_RLatLon0.09_PT016H.grib2 2026-04-30 20:43 299K
20260430T18Z_MSC_RDPS_DewPointDepression_IsbL-0275_RLatLon0.09_PT016H.grib2 2026-04-30 20:43 305K
20260430T18Z_MSC_RDPS_DewPointDepression_IsbL-0300_RLatLon0.09_PT016H.grib2 2026-04-30 20:43 325K
20260430T18Z_MSC_RDPS_DewPointDepression_IsbL-0350_RLatLon0.09_PT016H.grib2 2026-04-30 20:43 329K
20260430T18Z_MSC_RDPS_DewPointDepression_IsbL-0400_RLatLon0.09_PT016H.grib2 2026-04-30 20:43 338K
20260430T18Z_MSC_RDPS_DewPointDepression_IsbL-0450_RLatLon0.09_PT016H.grib2 2026-04-30 20:43 343K
20260430T18Z_MSC_RDPS_DewPointDepression_IsbL-0500_RLatLon0.09_PT016H.grib2 2026-04-30 20:43 346K
20260430T18Z_MSC_RDPS_DewPointDepression_IsbL-0550_RLatLon0.09_PT016H.grib2 2026-04-30 20:43 357K
20260430T18Z_MSC_RDPS_DewPointDepression_IsbL-0600_RLatLon0.09_PT016H.grib2 2026-04-30 20:43 373K
20260430T18Z_MSC_RDPS_DewPointDepression_IsbL-0650_RLatLon0.09_PT016H.grib2 2026-04-30 20:43 378K
20260430T18Z_MSC_RDPS_DewPointDepression_IsbL-0700_RLatLon0.09_PT016H.grib2 2026-04-30 20:43 387K
20260430T18Z_MSC_RDPS_DewPointDepression_IsbL-0750_RLatLon0.09_PT016H.grib2 2026-04-30 20:43 404K
20260430T18Z_MSC_RDPS_DewPointDepression_IsbL-0800_RLatLon0.09_PT016H.grib2 2026-04-30 20:43 437K
20260430T18Z_MSC_RDPS_DewPointDepression_IsbL-0850_RLatLon0.09_PT016H.grib2 2026-04-30 20:43 466K
20260430T18Z_MSC_RDPS_DewPointDepression_IsbL-0875_RLatLon0.09_PT016H.grib2 2026-04-30 20:43 470K
20260430T18Z_MSC_RDPS_DewPointDepression_IsbL-0900_RLatLon0.09_PT016H.grib2 2026-04-30 20:43 459K
20260430T18Z_MSC_RDPS_DewPointDepression_IsbL-0925_RLatLon0.09_PT016H.grib2 2026-04-30 20:43 448K
20260430T18Z_MSC_RDPS_DewPointDepression_IsbL-0950_RLatLon0.09_PT016H.grib2 2026-04-30 20:43 444K
20260430T18Z_MSC_RDPS_DewPointDepression_IsbL-0970_RLatLon0.09_PT016H.grib2 2026-04-30 20:43 435K
20260430T18Z_MSC_RDPS_DewPointDepression_IsbL-0985_RLatLon0.09_PT016H.grib2 2026-04-30 20:43 430K
20260430T18Z_MSC_RDPS_DewPointDepression_IsbL-1000_RLatLon0.09_PT016H.grib2 2026-04-30 20:43 424K
20260430T18Z_MSC_RDPS_DewPointDepression_IsbL-1015_RLatLon0.09_PT016H.grib2 2026-04-30 20:43 415K
20260430T18Z_MSC_RDPS_DewPoint_AGL-2m_RLatLon0.09_PT016H.grib2 2026-04-30 20:43 396K
20260430T18Z_MSC_RDPS_DownwardLongwaveRadiationFlux-Accum_Sfc_RLatLon0.09_PT016H.grib2 2026-04-30 20:43 511K
20260430T18Z_MSC_RDPS_DownwardShortwaveRadiationFlux-Accum_NTAtm_RLatLon0.09_PT016H.grib2 2026-04-30 20:43 103K
20260430T18Z_MSC_RDPS_DownwardShortwaveRadiationFlux-Accum_Sfc_RLatLon0.09_PT016H.grib2 2026-04-30 20:43 541K
20260430T18Z_MSC_RDPS_FreezingRain-Accum1h_Sfc_RLatLon0.09_PT016H.grib2 2026-04-30 20:43 40K
20260430T18Z_MSC_RDPS_FreezingRain-Accum_Sfc_RLatLon0.09_PT016H.grib2 2026-04-30 20:43 96K
20260430T18Z_MSC_RDPS_GeopotentialHeight_IsbL-0001_RLatLon0.09_PT016H.grib2 2026-04-30 20:43 310K
20260430T18Z_MSC_RDPS_GeopotentialHeight_IsbL-0005_RLatLon0.09_PT016H.grib2 2026-04-30 20:43 302K
20260430T18Z_MSC_RDPS_GeopotentialHeight_IsbL-0010_RLatLon0.09_PT016H.grib2 2026-04-30 20:43 303K
20260430T18Z_MSC_RDPS_GeopotentialHeight_IsbL-0020_RLatLon0.09_PT016H.grib2 2026-04-30 20:43 302K
20260430T18Z_MSC_RDPS_GeopotentialHeight_IsbL-0030_RLatLon0.09_PT016H.grib2 2026-04-30 20:43 303K
20260430T18Z_MSC_RDPS_GeopotentialHeight_IsbL-0050_RLatLon0.09_PT016H.grib2 2026-04-30 20:43 306K
20260430T18Z_MSC_RDPS_GeopotentialHeight_IsbL-0100_RLatLon0.09_PT016H.grib2 2026-04-30 20:43 283K
20260430T18Z_MSC_RDPS_GeopotentialHeight_IsbL-0150_RLatLon0.09_PT016H.grib2 2026-04-30 20:43 226K
20260430T18Z_MSC_RDPS_GeopotentialHeight_IsbL-0175_RLatLon0.09_PT016H.grib2 2026-04-30 20:43 229K
20260430T18Z_MSC_RDPS_GeopotentialHeight_IsbL-0200_RLatLon0.09_PT016H.grib2 2026-04-30 20:43 263K
20260430T18Z_MSC_RDPS_GeopotentialHeight_IsbL-0225_RLatLon0.09_PT016H.grib2 2026-04-30 20:43 265K
20260430T18Z_MSC_RDPS_GeopotentialHeight_IsbL-0250_RLatLon0.09_PT016H.grib2 2026-04-30 20:43 266K
20260430T18Z_MSC_RDPS_GeopotentialHeight_IsbL-0275_RLatLon0.09_PT016H.grib2 2026-04-30 20:43 234K
20260430T18Z_MSC_RDPS_GeopotentialHeight_IsbL-0300_RLatLon0.09_PT016H.grib2 2026-04-30 20:43 234K
20260430T18Z_MSC_RDPS_GeopotentialHeight_IsbL-0350_RLatLon0.09_PT016H.grib2 2026-04-30 20:43 231K
20260430T18Z_MSC_RDPS_GeopotentialHeight_IsbL-0400_RLatLon0.09_PT016H.grib2 2026-04-30 20:43 227K
20260430T18Z_MSC_RDPS_GeopotentialHeight_IsbL-0450_RLatLon0.09_PT016H.grib2 2026-04-30 20:43 295K
20260430T18Z_MSC_RDPS_GeopotentialHeight_IsbL-0500_RLatLon0.09_PT016H.grib2 2026-04-30 20:43 290K
20260430T18Z_MSC_RDPS_GeopotentialHeight_IsbL-0550_RLatLon0.09_PT016H.grib2 2026-04-30 20:43 286K
20260430T18Z_MSC_RDPS_GeopotentialHeight_IsbL-0600_RLatLon0.09_PT016H.grib2 2026-04-30 20:43 255K
20260430T18Z_MSC_RDPS_GeopotentialHeight_IsbL-0650_RLatLon0.09_PT016H.grib2 2026-04-30 20:43 253K
20260430T18Z_MSC_RDPS_GeopotentialHeight_IsbL-0700_RLatLon0.09_PT016H.grib2 2026-04-30 20:43 333K
20260430T18Z_MSC_RDPS_GeopotentialHeight_IsbL-0750_RLatLon0.09_PT016H.grib2 2026-04-30 20:43 336K
20260430T18Z_MSC_RDPS_GeopotentialHeight_IsbL-0800_RLatLon0.09_PT016H.grib2 2026-04-30 20:43 343K
20260430T18Z_MSC_RDPS_GeopotentialHeight_IsbL-0850_RLatLon0.09_PT016H.grib2 2026-04-30 20:43 353K
20260430T18Z_MSC_RDPS_GeopotentialHeight_IsbL-0875_RLatLon0.09_PT016H.grib2 2026-04-30 20:43 357K
20260430T18Z_MSC_RDPS_GeopotentialHeight_IsbL-0900_RLatLon0.09_PT016H.grib2 2026-04-30 20:43 359K
20260430T18Z_MSC_RDPS_GeopotentialHeight_IsbL-0925_RLatLon0.09_PT016H.grib2 2026-04-30 20:43 361K
20260430T18Z_MSC_RDPS_GeopotentialHeight_IsbL-0950_RLatLon0.09_PT016H.grib2 2026-04-30 20:43 367K
20260430T18Z_MSC_RDPS_GeopotentialHeight_IsbL-0970_RLatLon0.09_PT016H.grib2 2026-04-30 20:43 372K
20260430T18Z_MSC_RDPS_GeopotentialHeight_IsbL-0985_RLatLon0.09_PT016H.grib2 2026-04-30 20:43 380K
20260430T18Z_MSC_RDPS_GeopotentialHeight_IsbL-1000_RLatLon0.09_PT016H.grib2 2026-04-30 20:43 392K
20260430T18Z_MSC_RDPS_GeopotentialHeight_IsbL-1015_RLatLon0.09_PT016H.grib2 2026-04-30 20:43 408K
20260430T18Z_MSC_RDPS_Humidex_Sfc_RLatLon0.09_PT016H.grib2 2026-04-30 20:43 2.4M
20260430T18Z_MSC_RDPS_IcePellets-Accum1h_Sfc_RLatLon0.09_PT016H.grib2 2026-04-30 20:43 6.7K
20260430T18Z_MSC_RDPS_IcePellets-Accum_Sfc_RLatLon0.09_PT016H.grib2 2026-04-30 20:43 8.6K
20260430T18Z_MSC_RDPS_KIndex_Sfc_RLatLon0.09_PT016H.grib2 2026-04-30 20:43 2.5M
20260430T18Z_MSC_RDPS_LatentHeatNetFlux_Sfc_RLatLon0.09_PT016H.grib2 2026-04-30 20:43 311K
20260430T18Z_MSC_RDPS_LiftedIndex-MU-VT_IsbL-0500_RLatLon0.09_PT016H.grib2 2026-04-30 20:43 2.4M
20260430T18Z_MSC_RDPS_NetLongwaveRadiationFlux-Accum_Sfc_RLatLon0.09_PT016H.grib2 2026-04-30 20:43 514K
20260430T18Z_MSC_RDPS_NetShortwaveRadiationFlux-Accum_Sfc_RLatLon0.09_PT016H.grib2 2026-04-30 20:43 531K
20260430T18Z_MSC_RDPS_PlanetaryBoundaryLayerHeight_Sfc_RLatLon0.09_PT016H.grib2 2026-04-30 20:43 1.1M
20260430T18Z_MSC_RDPS_Precip-Accum1h_Sfc_RLatLon0.09_PT016H.grib2 2026-04-30 20:43 1.2M
20260430T18Z_MSC_RDPS_Precip-Accum_Sfc_RLatLon0.09_PT016H.grib2 2026-04-30 20:43 1.6M
20260430T18Z_MSC_RDPS_PrecipRate_Sfc_RLatLon0.09_PT016H.grib2 2026-04-30 20:43 174K
20260430T18Z_MSC_RDPS_PrecipType-Instant_Sfc_RLatLon0.09_PT016H.grib2 2026-04-30 20:43 566K
20260430T18Z_MSC_RDPS_Pressure-Trend3h_Sfc_RLatLon0.09_PT016H.grib2 2026-04-30 20:43 1.2M
20260430T18Z_MSC_RDPS_Pressure_MSL_RLatLon0.09_PT016H.grib2 2026-04-30 20:43 324K
20260430T18Z_MSC_RDPS_Pressure_PVU-1.5_RLatLon0.09_PT016H.grib2 2026-04-30 20:43 2.5M
20260430T18Z_MSC_RDPS_Pressure_PVU-1_RLatLon0.09_PT016H.grib2 2026-04-30 20:43 2.4M
20260430T18Z_MSC_RDPS_Pressure_PVU-2_RLatLon0.09_PT016H.grib2 2026-04-30 20:43 2.4M
20260430T18Z_MSC_RDPS_Pressure_Sfc_RLatLon0.09_PT016H.grib2 2026-04-30 20:43 500K
20260430T18Z_MSC_RDPS_RadiativeTemp_Sfc_RLatLon0.09_PT016H.grib2 2026-04-30 20:43 308K
20260430T18Z_MSC_RDPS_Rain-Accum1h_Sfc_RLatLon0.09_PT016H.grib2 2026-04-30 20:43 531K
20260430T18Z_MSC_RDPS_Rain-Accum_Sfc_RLatLon0.09_PT016H.grib2 2026-04-30 20:43 1.2M
20260430T18Z_MSC_RDPS_RelativeHumidity_AGL-2m_RLatLon0.09_PT016H.grib2 2026-04-30 20:43 1.0M
20260430T18Z_MSC_RDPS_RelativeHumidity_IsbL-0010_RLatLon0.09_PT016H.grib2 2026-04-30 20:43 644K
20260430T18Z_MSC_RDPS_RelativeHumidity_IsbL-0020_RLatLon0.09_PT016H.grib2 2026-04-30 20:43 684K
20260430T18Z_MSC_RDPS_RelativeHumidity_IsbL-0030_RLatLon0.09_PT016H.grib2 2026-04-30 20:43 601K
20260430T18Z_MSC_RDPS_RelativeHumidity_IsbL-0050_RLatLon0.09_PT016H.grib2 2026-04-30 20:43 363K
20260430T18Z_MSC_RDPS_RelativeHumidity_IsbL-0100_RLatLon0.09_PT016H.grib2 2026-04-30 20:43 285K
20260430T18Z_MSC_RDPS_RelativeHumidity_IsbL-0150_RLatLon0.09_PT016H.grib2 2026-04-30 20:43 405K
20260430T18Z_MSC_RDPS_RelativeHumidity_IsbL-0175_RLatLon0.09_PT016H.grib2 2026-04-30 20:43 471K
20260430T18Z_MSC_RDPS_RelativeHumidity_IsbL-0200_RLatLon0.09_PT016H.grib2 2026-04-30 20:43 553K
20260430T18Z_MSC_RDPS_RelativeHumidity_IsbL-0225_RLatLon0.09_PT016H.grib2 2026-04-30 20:43 623K
20260430T18Z_MSC_RDPS_RelativeHumidity_IsbL-0250_RLatLon0.09_PT016H.grib2 2026-04-30 20:43 695K
20260430T18Z_MSC_RDPS_RelativeHumidity_IsbL-0275_RLatLon0.09_PT016H.grib2 2026-04-30 20:43 717K
20260430T18Z_MSC_RDPS_RelativeHumidity_IsbL-0300_RLatLon0.09_PT016H.grib2 2026-04-30 20:43 761K
20260430T18Z_MSC_RDPS_RelativeHumidity_IsbL-0350_RLatLon0.09_PT016H.grib2 2026-04-30 20:43 779K
20260430T18Z_MSC_RDPS_RelativeHumidity_IsbL-0400_RLatLon0.09_PT016H.grib2 2026-04-30 20:43 792K
20260430T18Z_MSC_RDPS_RelativeHumidity_IsbL-0450_RLatLon0.09_PT016H.grib2 2026-04-30 20:43 794K
20260430T18Z_MSC_RDPS_RelativeHumidity_IsbL-0500_RLatLon0.09_PT016H.grib2 2026-04-30 20:43 806K
20260430T18Z_MSC_RDPS_RelativeHumidity_IsbL-0550_RLatLon0.09_PT016H.grib2 2026-04-30 20:43 826K
20260430T18Z_MSC_RDPS_RelativeHumidity_IsbL-0600_RLatLon0.09_PT016H.grib2 2026-04-30 20:43 852K
20260430T18Z_MSC_RDPS_RelativeHumidity_IsbL-0650_RLatLon0.09_PT016H.grib2 2026-04-30 20:43 868K
20260430T18Z_MSC_RDPS_RelativeHumidity_IsbL-0700_RLatLon0.09_PT016H.grib2 2026-04-30 20:43 888K
20260430T18Z_MSC_RDPS_RelativeHumidity_IsbL-0750_RLatLon0.09_PT016H.grib2 2026-04-30 20:43 923K
20260430T18Z_MSC_RDPS_RelativeHumidity_IsbL-0800_RLatLon0.09_PT016H.grib2 2026-04-30 20:43 1.0M
20260430T18Z_MSC_RDPS_RelativeHumidity_IsbL-0850_RLatLon0.09_PT016H.grib2 2026-04-30 20:43 1.0M
20260430T18Z_MSC_RDPS_RelativeHumidity_IsbL-0875_RLatLon0.09_PT016H.grib2 2026-04-30 20:43 1.1M
20260430T18Z_MSC_RDPS_RelativeHumidity_IsbL-0900_RLatLon0.09_PT016H.grib2 2026-04-30 20:43 1.1M
20260430T18Z_MSC_RDPS_RelativeHumidity_IsbL-0925_RLatLon0.09_PT016H.grib2 2026-04-30 20:43 1.1M
20260430T18Z_MSC_RDPS_RelativeHumidity_IsbL-0950_RLatLon0.09_PT016H.grib2 2026-04-30 20:43 1.1M
20260430T18Z_MSC_RDPS_RelativeHumidity_IsbL-0970_RLatLon0.09_PT016H.grib2 2026-04-30 20:43 1.1M
20260430T18Z_MSC_RDPS_RelativeHumidity_IsbL-0985_RLatLon0.09_PT016H.grib2 2026-04-30 20:43 1.0M
20260430T18Z_MSC_RDPS_RelativeHumidity_IsbL-1000_RLatLon0.09_PT016H.grib2 2026-04-30 20:43 1.0M
20260430T18Z_MSC_RDPS_RelativeHumidity_IsbL-1015_RLatLon0.09_PT016H.grib2 2026-04-30 20:43 1.0M
20260430T18Z_MSC_RDPS_Runoff-Accum_Sfc_RLatLon0.09_PT016H.grib2 2026-04-30 20:43 45K
20260430T18Z_MSC_RDPS_SWEATIndex_Sfc_RLatLon0.09_PT016H.grib2 2026-04-30 20:43 2.4M
20260430T18Z_MSC_RDPS_SeeingIndex_EAtm_RLatLon0.09_PT016H.grib2 2026-04-30 20:43 1.0M
20260430T18Z_MSC_RDPS_SensibleHeatNetFlux_Sfc_RLatLon0.09_PT016H.grib2 2026-04-30 20:43 292K
20260430T18Z_MSC_RDPS_ShowalterIndex_IsbL-0500_RLatLon0.09_PT016H.grib2 2026-04-30 20:43 2.6M
20260430T18Z_MSC_RDPS_SkyTransparencyIndex_EAtm_RLatLon0.09_PT016H.grib2 2026-04-30 20:43 701K
20260430T18Z_MSC_RDPS_Snow-Accum1h_Sfc_RLatLon0.09_PT016H.grib2 2026-04-30 20:43 438K
20260430T18Z_MSC_RDPS_Snow-Accum_Sfc_RLatLon0.09_PT016H.grib2 2026-04-30 20:43 635K
20260430T18Z_MSC_RDPS_SnowDensity_Sfc_RLatLon0.09_PT016H.grib2 2026-04-30 20:43 170K
20260430T18Z_MSC_RDPS_SnowDepth_Sfc_RLatLon0.09_PT016H.grib2 2026-04-30 20:43 669K
20260430T18Z_MSC_RDPS_SoilTemp_DBS-0to10cm_RLatLon0.09_PT016H.grib2 2026-04-30 20:43 215K
20260430T18Z_MSC_RDPS_SoilTemp_Sfc_RLatLon0.09_PT016H.grib2 2026-04-30 20:43 287K
20260430T18Z_MSC_RDPS_SoilVolumetricIceContent_Sfc_RLatLon0.09_PT016H.grib2 2026-04-30 20:43 163K
20260430T18Z_MSC_RDPS_SoilVolumetricWaterContent_DBS-0to10cm_RLatLon0.09_PT016H.grib2 2026-04-30 20:43 269K
20260430T18Z_MSC_RDPS_SoilVolumetricWaterContent_DBS-0to1cm_RLatLon0.09_PT016H.grib2 2026-04-30 20:43 336K
20260430T18Z_MSC_RDPS_SpecificHumidity_AGL-120m_RLatLon0.09_PT016H.grib2 2026-04-30 20:43 488K
20260430T18Z_MSC_RDPS_SpecificHumidity_AGL-2m_RLatLon0.09_PT016H.grib2 2026-04-30 20:43 654K
20260430T18Z_MSC_RDPS_SpecificHumidity_AGL-40m_RLatLon0.09_PT016H.grib2 2026-04-30 20:43 493K
20260430T18Z_MSC_RDPS_SpecificHumidity_AGL-80m_RLatLon0.09_PT016H.grib2 2026-04-30 20:43 490K
20260430T18Z_MSC_RDPS_SpecificHumidity_IsbL-0001_RLatLon0.09_PT016H.grib2 2026-04-30 20:43 389K
20260430T18Z_MSC_RDPS_SpecificHumidity_IsbL-0005_RLatLon0.09_PT016H.grib2 2026-04-30 20:43 364K
20260430T18Z_MSC_RDPS_SpecificHumidity_IsbL-0010_RLatLon0.09_PT016H.grib2 2026-04-30 20:43 396K
20260430T18Z_MSC_RDPS_SpecificHumidity_IsbL-0020_RLatLon0.09_PT016H.grib2 2026-04-30 20:43 386K
20260430T18Z_MSC_RDPS_SpecificHumidity_IsbL-0030_RLatLon0.09_PT016H.grib2 2026-04-30 20:43 371K
20260430T18Z_MSC_RDPS_SpecificHumidity_IsbL-0050_RLatLon0.09_PT016H.grib2 2026-04-30 20:43 457K
20260430T18Z_MSC_RDPS_SpecificHumidity_IsbL-0100_RLatLon0.09_PT016H.grib2 2026-04-30 20:43 430K
20260430T18Z_MSC_RDPS_SpecificHumidity_IsbL-0150_RLatLon0.09_PT016H.grib2 2026-04-30 20:43 450K
20260430T18Z_MSC_RDPS_SpecificHumidity_IsbL-0175_RLatLon0.09_PT016H.grib2 2026-04-30 20:43 427K
20260430T18Z_MSC_RDPS_SpecificHumidity_IsbL-0200_RLatLon0.09_PT016H.grib2 2026-04-30 20:43 446K
20260430T18Z_MSC_RDPS_SpecificHumidity_IsbL-0225_RLatLon0.09_PT016H.grib2 2026-04-30 20:43 451K
20260430T18Z_MSC_RDPS_SpecificHumidity_IsbL-0250_RLatLon0.09_PT016H.grib2 2026-04-30 20:43 558K
20260430T18Z_MSC_RDPS_SpecificHumidity_IsbL-0275_RLatLon0.09_PT016H.grib2 2026-04-30 20:43 473K
20260430T18Z_MSC_RDPS_SpecificHumidity_IsbL-0300_RLatLon0.09_PT016H.grib2 2026-04-30 20:43 546K
20260430T18Z_MSC_RDPS_SpecificHumidity_IsbL-0350_RLatLon0.09_PT016H.grib2 2026-04-30 20:43 537K
20260430T18Z_MSC_RDPS_SpecificHumidity_IsbL-0400_RLatLon0.09_PT016H.grib2 2026-04-30 20:43 518K
20260430T18Z_MSC_RDPS_SpecificHumidity_IsbL-0450_RLatLon0.09_PT016H.grib2 2026-04-30 20:43 568K
20260430T18Z_MSC_RDPS_SpecificHumidity_IsbL-0500_RLatLon0.09_PT016H.grib2 2026-04-30 20:43 502K
20260430T18Z_MSC_RDPS_SpecificHumidity_IsbL-0550_RLatLon0.09_PT016H.grib2 2026-04-30 20:43 575K
20260430T18Z_MSC_RDPS_SpecificHumidity_IsbL-0600_RLatLon0.09_PT016H.grib2 2026-04-30 20:43 630K
20260430T18Z_MSC_RDPS_SpecificHumidity_IsbL-0650_RLatLon0.09_PT016H.grib2 2026-04-30 20:43 549K
20260430T18Z_MSC_RDPS_SpecificHumidity_IsbL-0700_RLatLon0.09_PT016H.grib2 2026-04-30 20:43 591K
20260430T18Z_MSC_RDPS_SpecificHumidity_IsbL-0750_RLatLon0.09_PT016H.grib2 2026-04-30 20:43 640K
20260430T18Z_MSC_RDPS_SpecificHumidity_IsbL-0800_RLatLon0.09_PT016H.grib2 2026-04-30 20:43 719K
20260430T18Z_MSC_RDPS_SpecificHumidity_IsbL-0850_RLatLon0.09_PT016H.grib2 2026-04-30 20:43 794K
20260430T18Z_MSC_RDPS_SpecificHumidity_IsbL-0875_RLatLon0.09_PT016H.grib2 2026-04-30 20:43 822K
20260430T18Z_MSC_RDPS_SpecificHumidity_IsbL-0900_RLatLon0.09_PT016H.grib2 2026-04-30 20:43 834K
20260430T18Z_MSC_RDPS_SpecificHumidity_IsbL-0925_RLatLon0.09_PT016H.grib2 2026-04-30 20:43 837K
20260430T18Z_MSC_RDPS_SpecificHumidity_IsbL-0950_RLatLon0.09_PT016H.grib2 2026-04-30 20:43 841K
20260430T18Z_MSC_RDPS_SpecificHumidity_IsbL-0970_RLatLon0.09_PT016H.grib2 2026-04-30 20:43 830K
20260430T18Z_MSC_RDPS_SpecificHumidity_IsbL-0985_RLatLon0.09_PT016H.grib2 2026-04-30 20:43 681K
20260430T18Z_MSC_RDPS_SpecificHumidity_IsbL-1000_RLatLon0.09_PT016H.grib2 2026-04-30 20:43 673K
20260430T18Z_MSC_RDPS_SpecificHumidity_IsbL-1015_RLatLon0.09_PT016H.grib2 2026-04-30 20:43 661K
20260430T18Z_MSC_RDPS_SpecificHumidity_Sfc_RLatLon0.09_PT016H.grib2 2026-04-30 20:43 292K
20260430T18Z_MSC_RDPS_StormRelativeHelicity_EtaL-10000_RLatLon0.09_PT016H.grib2 2026-04-30 20:43 1.1M
20260430T18Z_MSC_RDPS_StormSeverityIndex_EtaL-10000_RLatLon0.09_PT016H.grib2 2026-04-30 20:43 1.1M
20260430T18Z_MSC_RDPS_Thickness_IsbL-0850to0700_RLatLon0.09_PT016H.grib2 2026-04-30 20:43 176K
20260430T18Z_MSC_RDPS_Thickness_IsbL-1000to0500_RLatLon0.09_PT016H.grib2 2026-04-30 20:43 195K
20260430T18Z_MSC_RDPS_Thickness_IsbL-1000to0850_RLatLon0.09_PT016H.grib2 2026-04-30 20:43 260K
20260430T18Z_MSC_RDPS_TotalCloudCover_Sfc_RLatLon0.09_PT016H.grib2 2026-04-30 20:43 659K
20260430T18Z_MSC_RDPS_TotalTotalsIndex_Sfc_RLatLon0.09_PT016H.grib2 2026-04-30 20:43 2.4M
20260430T18Z_MSC_RDPS_UVIndex-ClearSky_Sfc_RLatLon0.09_PT016H.grib2 2026-04-30 20:43 133K
20260430T18Z_MSC_RDPS_UVIndex_Sfc_RLatLon0.09_PT016H.grib2 2026-04-30 20:43 252K
20260430T18Z_MSC_RDPS_UpwardLongwaveRadiationFlux_NTAtm_RLatLon0.09_PT016H.grib2 2026-04-30 20:43 487K
20260430T18Z_MSC_RDPS_UpwardShortwaveRadiationFlux_NTAtm_RLatLon0.09_PT016H.grib2 2026-04-30 20:43 196K
20260430T18Z_MSC_RDPS_VerticalVelocity_IsbL-0250_RLatLon0.09_PT016H.grib2 2026-04-30 20:43 551K
20260430T18Z_MSC_RDPS_VerticalVelocity_IsbL-0500_RLatLon0.09_PT016H.grib2 2026-04-30 20:43 542K
20260430T18Z_MSC_RDPS_VerticalVelocity_IsbL-0700_RLatLon0.09_PT016H.grib2 2026-04-30 20:43 615K
20260430T18Z_MSC_RDPS_VerticalVelocity_IsbL-0850_RLatLon0.09_PT016H.grib2 2026-04-30 20:43 702K
20260430T18Z_MSC_RDPS_VerticalWindShear_EtaL-6500_RLatLon0.09_PT016H.grib2 2026-04-30 20:43 1.2M
20260430T18Z_MSC_RDPS_WindChill_Sfc_RLatLon0.09_PT016H.grib2 2026-04-30 20:43 1.2M
20260430T18Z_MSC_RDPS_WindDir_AGL-10m_RLatLon0.09_PT016H.grib2 2026-04-30 20:43 1.0M
20260430T18Z_MSC_RDPS_WindDir_AGL-120m_RLatLon0.09_PT016H.grib2 2026-04-30 20:43 615K
20260430T18Z_MSC_RDPS_WindDir_AGL-40m_RLatLon0.09_PT016H.grib2 2026-04-30 20:43 650K
20260430T18Z_MSC_RDPS_WindDir_AGL-80m_RLatLon0.09_PT016H.grib2 2026-04-30 20:43 628K
20260430T18Z_MSC_RDPS_WindDir_IsbL-0001_RLatLon0.09_PT016H.grib2 2026-04-30 20:43 304K
20260430T18Z_MSC_RDPS_WindDir_IsbL-0005_RLatLon0.09_PT016H.grib2 2026-04-30 20:43 364K
20260430T18Z_MSC_RDPS_WindDir_IsbL-0010_RLatLon0.09_PT016H.grib2 2026-04-30 20:43 375K
20260430T18Z_MSC_RDPS_WindDir_IsbL-0020_RLatLon0.09_PT016H.grib2 2026-04-30 20:43 413K
20260430T18Z_MSC_RDPS_WindDir_IsbL-0030_RLatLon0.09_PT016H.grib2 2026-04-30 20:43 408K
20260430T18Z_MSC_RDPS_WindDir_IsbL-0050_RLatLon0.09_PT016H.grib2 2026-04-30 20:43 428K
20260430T18Z_MSC_RDPS_WindDir_IsbL-0100_RLatLon0.09_PT016H.grib2 2026-04-30 20:43 426K
20260430T18Z_MSC_RDPS_WindDir_IsbL-0150_RLatLon0.09_PT016H.grib2 2026-04-30 20:43 423K
20260430T18Z_MSC_RDPS_WindDir_IsbL-0175_RLatLon0.09_PT016H.grib2 2026-04-30 20:43 444K
20260430T18Z_MSC_RDPS_WindDir_IsbL-0200_RLatLon0.09_PT016H.grib2 2026-04-30 20:43 455K
20260430T18Z_MSC_RDPS_WindDir_IsbL-0225_RLatLon0.09_PT016H.grib2 2026-04-30 20:43 465K
20260430T18Z_MSC_RDPS_WindDir_IsbL-0250_RLatLon0.09_PT016H.grib2 2026-04-30 20:43 461K
20260430T18Z_MSC_RDPS_WindDir_IsbL-0275_RLatLon0.09_PT016H.grib2 2026-04-30 20:43 483K
20260430T18Z_MSC_RDPS_WindDir_IsbL-0300_RLatLon0.09_PT016H.grib2 2026-04-30 20:43 476K
20260430T18Z_MSC_RDPS_WindDir_IsbL-0350_RLatLon0.09_PT016H.grib2 2026-04-30 20:43 493K
20260430T18Z_MSC_RDPS_WindDir_IsbL-0400_RLatLon0.09_PT016H.grib2 2026-04-30 20:43 508K
20260430T18Z_MSC_RDPS_WindDir_IsbL-0450_RLatLon0.09_PT016H.grib2 2026-04-30 20:43 518K
20260430T18Z_MSC_RDPS_WindDir_IsbL-0500_RLatLon0.09_PT016H.grib2 2026-04-30 20:43 537K
20260430T18Z_MSC_RDPS_WindDir_IsbL-0550_RLatLon0.09_PT016H.grib2 2026-04-30 20:43 561K
20260430T18Z_MSC_RDPS_WindDir_IsbL-0600_RLatLon0.09_PT016H.grib2 2026-04-30 20:43 592K
20260430T18Z_MSC_RDPS_WindDir_IsbL-0650_RLatLon0.09_PT016H.grib2 2026-04-30 20:43 638K
20260430T18Z_MSC_RDPS_WindDir_IsbL-0700_RLatLon0.09_PT016H.grib2 2026-04-30 20:43 682K
20260430T18Z_MSC_RDPS_WindDir_IsbL-0750_RLatLon0.09_PT016H.grib2 2026-04-30 20:43 724K
20260430T18Z_MSC_RDPS_WindDir_IsbL-0800_RLatLon0.09_PT016H.grib2 2026-04-30 20:43 786K
20260430T18Z_MSC_RDPS_WindDir_IsbL-0850_RLatLon0.09_PT016H.grib2 2026-04-30 20:43 858K
20260430T18Z_MSC_RDPS_WindDir_IsbL-0875_RLatLon0.09_PT016H.grib2 2026-04-30 20:43 889K
20260430T18Z_MSC_RDPS_WindDir_IsbL-0900_RLatLon0.09_PT016H.grib2 2026-04-30 20:43 907K
20260430T18Z_MSC_RDPS_WindDir_IsbL-0925_RLatLon0.09_PT016H.grib2 2026-04-30 20:43 916K
20260430T18Z_MSC_RDPS_WindDir_IsbL-0950_RLatLon0.09_PT016H.grib2 2026-04-30 20:43 923K
20260430T18Z_MSC_RDPS_WindDir_IsbL-0970_RLatLon0.09_PT016H.grib2 2026-04-30 20:43 931K
20260430T18Z_MSC_RDPS_WindDir_IsbL-0985_RLatLon0.09_PT016H.grib2 2026-04-30 20:43 943K
20260430T18Z_MSC_RDPS_WindDir_IsbL-1000_RLatLon0.09_PT016H.grib2 2026-04-30 20:43 960K
20260430T18Z_MSC_RDPS_WindDir_IsbL-1015_RLatLon0.09_PT016H.grib2 2026-04-30 20:43 1.0M
20260430T18Z_MSC_RDPS_WindGust-Max_AGL-10m_RLatLon0.09_PT016H.grib2 2026-04-30 20:43 1.0M
20260430T18Z_MSC_RDPS_WindGust-Min_AGL-10m_RLatLon0.09_PT016H.grib2 2026-04-30 20:43 970K
20260430T18Z_MSC_RDPS_WindGust_AGL-10m_RLatLon0.09_PT016H.grib2 2026-04-30 20:43 1.0M
20260430T18Z_MSC_RDPS_WindSpeed_AGL-10m_RLatLon0.09_PT016H.grib2 2026-04-30 20:43 842K
20260430T18Z_MSC_RDPS_WindSpeed_AGL-120m_RLatLon0.09_PT016H.grib2 2026-04-30 20:43 542K
20260430T18Z_MSC_RDPS_WindSpeed_AGL-40m_RLatLon0.09_PT016H.grib2 2026-04-30 20:43 542K
20260430T18Z_MSC_RDPS_WindSpeed_AGL-80m_RLatLon0.09_PT016H.grib2 2026-04-30 20:43 542K
20260430T18Z_MSC_RDPS_WindSpeed_IsbL-0001_RLatLon0.09_PT016H.grib2 2026-04-30 20:43 251K
20260430T18Z_MSC_RDPS_WindSpeed_IsbL-0005_RLatLon0.09_PT016H.grib2 2026-04-30 20:43 289K
20260430T18Z_MSC_RDPS_WindSpeed_IsbL-0010_RLatLon0.09_PT016H.grib2 2026-04-30 20:43 391K
20260430T18Z_MSC_RDPS_WindSpeed_IsbL-0020_RLatLon0.09_PT016H.grib2 2026-04-30 20:43 317K
20260430T18Z_MSC_RDPS_WindSpeed_IsbL-0030_RLatLon0.09_PT016H.grib2 2026-04-30 20:43 316K
20260430T18Z_MSC_RDPS_WindSpeed_IsbL-0050_RLatLon0.09_PT016H.grib2 2026-04-30 20:43 348K
20260430T18Z_MSC_RDPS_WindSpeed_IsbL-0100_RLatLon0.09_PT016H.grib2 2026-04-30 20:43 475K
20260430T18Z_MSC_RDPS_WindSpeed_IsbL-0150_RLatLon0.09_PT016H.grib2 2026-04-30 20:43 381K
20260430T18Z_MSC_RDPS_WindSpeed_IsbL-0175_RLatLon0.09_PT016H.grib2 2026-04-30 20:43 427K
20260430T18Z_MSC_RDPS_WindSpeed_IsbL-0200_RLatLon0.09_PT016H.grib2 2026-04-30 20:43 444K
20260430T18Z_MSC_RDPS_WindSpeed_IsbL-0225_RLatLon0.09_PT016H.grib2 2026-04-30 20:43 450K
20260430T18Z_MSC_RDPS_WindSpeed_IsbL-0250_RLatLon0.09_PT016H.grib2 2026-04-30 20:43 452K
20260430T18Z_MSC_RDPS_WindSpeed_IsbL-0275_RLatLon0.09_PT016H.grib2 2026-04-30 20:43 469K
20260430T18Z_MSC_RDPS_WindSpeed_IsbL-0300_RLatLon0.09_PT016H.grib2 2026-04-30 20:43 465K
20260430T18Z_MSC_RDPS_WindSpeed_IsbL-0350_RLatLon0.09_PT016H.grib2 2026-04-30 20:43 473K
20260430T18Z_MSC_RDPS_WindSpeed_IsbL-0400_RLatLon0.09_PT016H.grib2 2026-04-30 20:43 476K
20260430T18Z_MSC_RDPS_WindSpeed_IsbL-0450_RLatLon0.09_PT016H.grib2 2026-04-30 20:43 475K
20260430T18Z_MSC_RDPS_WindSpeed_IsbL-0500_RLatLon0.09_PT016H.grib2 2026-04-30 20:43 460K
20260430T18Z_MSC_RDPS_WindSpeed_IsbL-0550_RLatLon0.09_PT016H.grib2 2026-04-30 20:43 461K
20260430T18Z_MSC_RDPS_WindSpeed_IsbL-0600_RLatLon0.09_PT016H.grib2 2026-04-30 20:43 470K
20260430T18Z_MSC_RDPS_WindSpeed_IsbL-0650_RLatLon0.09_PT016H.grib2 2026-04-30 20:43 612K
20260430T18Z_MSC_RDPS_WindSpeed_IsbL-0700_RLatLon0.09_PT016H.grib2 2026-04-30 20:43 639K
20260430T18Z_MSC_RDPS_WindSpeed_IsbL-0750_RLatLon0.09_PT016H.grib2 2026-04-30 20:43 666K
20260430T18Z_MSC_RDPS_WindSpeed_IsbL-0800_RLatLon0.09_PT016H.grib2 2026-04-30 20:43 755K
20260430T18Z_MSC_RDPS_WindSpeed_IsbL-0850_RLatLon0.09_PT016H.grib2 2026-04-30 20:43 812K
20260430T18Z_MSC_RDPS_WindSpeed_IsbL-0875_RLatLon0.09_PT016H.grib2 2026-04-30 20:43 833K
20260430T18Z_MSC_RDPS_WindSpeed_IsbL-0900_RLatLon0.09_PT016H.grib2 2026-04-30 20:43 848K
20260430T18Z_MSC_RDPS_WindSpeed_IsbL-0925_RLatLon0.09_PT016H.grib2 2026-04-30 20:43 861K
20260430T18Z_MSC_RDPS_WindSpeed_IsbL-0950_RLatLon0.09_PT016H.grib2 2026-04-30 20:43 863K
20260430T18Z_MSC_RDPS_WindSpeed_IsbL-0970_RLatLon0.09_PT016H.grib2 2026-04-30 20:43 862K
20260430T18Z_MSC_RDPS_WindSpeed_IsbL-0985_RLatLon0.09_PT016H.grib2 2026-04-30 20:43 854K
20260430T18Z_MSC_RDPS_WindSpeed_IsbL-1000_RLatLon0.09_PT016H.grib2 2026-04-30 20:43 848K
20260430T18Z_MSC_RDPS_WindSpeed_IsbL-1015_RLatLon0.09_PT016H.grib2 2026-04-30 20:43 840K
20260430T18Z_MSC_RDPS_WindU_AGL-10m_RLatLon0.09_PT016H.grib2 2026-04-30 20:43 432K
20260430T18Z_MSC_RDPS_WindU_AGL-120m_RLatLon0.09_PT016H.grib2 2026-04-30 20:43 538K
20260430T18Z_MSC_RDPS_WindU_AGL-40m_RLatLon0.09_PT016H.grib2 2026-04-30 20:43 541K
20260430T18Z_MSC_RDPS_WindU_AGL-80m_RLatLon0.09_PT016H.grib2 2026-04-30 20:43 540K
20260430T18Z_MSC_RDPS_WindU_IsbL-0001_RLatLon0.09_PT016H.grib2 2026-04-30 20:43 291K
20260430T18Z_MSC_RDPS_WindU_IsbL-0005_RLatLon0.09_PT016H.grib2 2026-04-30 20:43 282K
20260430T18Z_MSC_RDPS_WindU_IsbL-0010_RLatLon0.09_PT016H.grib2 2026-04-30 20:43 292K
20260430T18Z_MSC_RDPS_WindU_IsbL-0020_RLatLon0.09_PT016H.grib2 2026-04-30 20:43 348K
20260430T18Z_MSC_RDPS_WindU_IsbL-0030_RLatLon0.09_PT016H.grib2 2026-04-30 20:43 308K
20260430T18Z_MSC_RDPS_WindU_IsbL-0050_RLatLon0.09_PT016H.grib2 2026-04-30 20:43 340K
20260430T18Z_MSC_RDPS_WindU_IsbL-0100_RLatLon0.09_PT016H.grib2 2026-04-30 20:43 334K
20260430T18Z_MSC_RDPS_WindU_IsbL-0150_RLatLon0.09_PT016H.grib2 2026-04-30 20:43 397K
20260430T18Z_MSC_RDPS_WindU_IsbL-0175_RLatLon0.09_PT016H.grib2 2026-04-30 20:43 420K
20260430T18Z_MSC_RDPS_WindU_IsbL-0200_RLatLon0.09_PT016H.grib2 2026-04-30 20:43 339K
20260430T18Z_MSC_RDPS_WindU_IsbL-0225_RLatLon0.09_PT016H.grib2 2026-04-30 20:43 344K
20260430T18Z_MSC_RDPS_WindU_IsbL-0250_RLatLon0.09_PT016H.grib2 2026-04-30 20:43 344K
20260430T18Z_MSC_RDPS_WindU_IsbL-0275_RLatLon0.09_PT016H.grib2 2026-04-30 20:43 358K
20260430T18Z_MSC_RDPS_WindU_IsbL-0300_RLatLon0.09_PT016H.grib2 2026-04-30 20:43 352K
20260430T18Z_MSC_RDPS_WindU_IsbL-0350_RLatLon0.09_PT016H.grib2 2026-04-30 20:43 359K
20260430T18Z_MSC_RDPS_WindU_IsbL-0400_RLatLon0.09_PT016H.grib2 2026-04-30 20:43 362K
20260430T18Z_MSC_RDPS_WindU_IsbL-0450_RLatLon0.09_PT016H.grib2 2026-04-30 20:43 466K
20260430T18Z_MSC_RDPS_WindU_IsbL-0500_RLatLon0.09_PT016H.grib2 2026-04-30 20:43 467K
20260430T18Z_MSC_RDPS_WindU_IsbL-0550_RLatLon0.09_PT016H.grib2 2026-04-30 20:43 468K
20260430T18Z_MSC_RDPS_WindU_IsbL-0600_RLatLon0.09_PT016H.grib2 2026-04-30 20:43 478K
20260430T18Z_MSC_RDPS_WindU_IsbL-0650_RLatLon0.09_PT016H.grib2 2026-04-30 20:43 483K
20260430T18Z_MSC_RDPS_WindU_IsbL-0700_RLatLon0.09_PT016H.grib2 2026-04-30 20:43 507K
20260430T18Z_MSC_RDPS_WindU_IsbL-0750_RLatLon0.09_PT016H.grib2 2026-04-30 20:43 532K
20260430T18Z_MSC_RDPS_WindU_IsbL-0800_RLatLon0.09_PT016H.grib2 2026-04-30 20:43 570K
20260430T18Z_MSC_RDPS_WindU_IsbL-0850_RLatLon0.09_PT016H.grib2 2026-04-30 20:43 620K
20260430T18Z_MSC_RDPS_WindU_IsbL-0875_RLatLon0.09_PT016H.grib2 2026-04-30 20:43 637K
20260430T18Z_MSC_RDPS_WindU_IsbL-0900_RLatLon0.09_PT016H.grib2 2026-04-30 20:43 649K
20260430T18Z_MSC_RDPS_WindU_IsbL-0925_RLatLon0.09_PT016H.grib2 2026-04-30 20:43 658K
20260430T18Z_MSC_RDPS_WindU_IsbL-0950_RLatLon0.09_PT016H.grib2 2026-04-30 20:43 660K
20260430T18Z_MSC_RDPS_WindU_IsbL-0970_RLatLon0.09_PT016H.grib2 2026-04-30 20:43 798K
20260430T18Z_MSC_RDPS_WindU_IsbL-0985_RLatLon0.09_PT016H.grib2 2026-04-30 20:43 792K
20260430T18Z_MSC_RDPS_WindU_IsbL-1000_RLatLon0.09_PT016H.grib2 2026-04-30 20:43 788K
20260430T18Z_MSC_RDPS_WindU_IsbL-1015_RLatLon0.09_PT016H.grib2 2026-04-30 20:43 828K
20260430T18Z_MSC_RDPS_WindV_AGL-10m_RLatLon0.09_PT016H.grib2 2026-04-30 20:43 430K
20260430T18Z_MSC_RDPS_WindV_AGL-120m_RLatLon0.09_PT016H.grib2 2026-04-30 20:43 535K
20260430T18Z_MSC_RDPS_WindV_AGL-40m_RLatLon0.09_PT016H.grib2 2026-04-30 20:43 537K
20260430T18Z_MSC_RDPS_WindV_AGL-80m_RLatLon0.09_PT016H.grib2 2026-04-30 20:43 536K
20260430T18Z_MSC_RDPS_WindV_IsbL-0001_RLatLon0.09_PT016H.grib2 2026-04-30 20:43 243K
20260430T18Z_MSC_RDPS_WindV_IsbL-0005_RLatLon0.09_PT016H.grib2 2026-04-30 20:43 327K
20260430T18Z_MSC_RDPS_WindV_IsbL-0010_RLatLon0.09_PT016H.grib2 2026-04-30 20:43 296K
20260430T18Z_MSC_RDPS_WindV_IsbL-0020_RLatLon0.09_PT016H.grib2 2026-04-30 20:43 311K
20260430T18Z_MSC_RDPS_WindV_IsbL-0030_RLatLon0.09_PT016H.grib2 2026-04-30 20:43 312K
20260430T18Z_MSC_RDPS_WindV_IsbL-0050_RLatLon0.09_PT016H.grib2 2026-04-30 20:43 339K
20260430T18Z_MSC_RDPS_WindV_IsbL-0100_RLatLon0.09_PT016H.grib2 2026-04-30 20:43 427K
20260430T18Z_MSC_RDPS_WindV_IsbL-0150_RLatLon0.09_PT016H.grib2 2026-04-30 20:43 394K
20260430T18Z_MSC_RDPS_WindV_IsbL-0175_RLatLon0.09_PT016H.grib2 2026-04-30 20:43 419K
20260430T18Z_MSC_RDPS_WindV_IsbL-0200_RLatLon0.09_PT016H.grib2 2026-04-30 20:43 336K
20260430T18Z_MSC_RDPS_WindV_IsbL-0225_RLatLon0.09_PT016H.grib2 2026-04-30 20:43 340K
20260430T18Z_MSC_RDPS_WindV_IsbL-0250_RLatLon0.09_PT016H.grib2 2026-04-30 20:43 341K
20260430T18Z_MSC_RDPS_WindV_IsbL-0275_RLatLon0.09_PT016H.grib2 2026-04-30 20:43 356K
20260430T18Z_MSC_RDPS_WindV_IsbL-0300_RLatLon0.09_PT016H.grib2 2026-04-30 20:43 452K
20260430T18Z_MSC_RDPS_WindV_IsbL-0350_RLatLon0.09_PT016H.grib2 2026-04-30 20:43 459K
20260430T18Z_MSC_RDPS_WindV_IsbL-0400_RLatLon0.09_PT016H.grib2 2026-04-30 20:43 463K
20260430T18Z_MSC_RDPS_WindV_IsbL-0450_RLatLon0.09_PT016H.grib2 2026-04-30 20:43 461K
20260430T18Z_MSC_RDPS_WindV_IsbL-0500_RLatLon0.09_PT016H.grib2 2026-04-30 20:43 463K
20260430T18Z_MSC_RDPS_WindV_IsbL-0550_RLatLon0.09_PT016H.grib2 2026-04-30 20:43 466K
20260430T18Z_MSC_RDPS_WindV_IsbL-0600_RLatLon0.09_PT016H.grib2 2026-04-30 20:43 458K
20260430T18Z_MSC_RDPS_WindV_IsbL-0650_RLatLon0.09_PT016H.grib2 2026-04-30 20:43 479K
20260430T18Z_MSC_RDPS_WindV_IsbL-0700_RLatLon0.09_PT016H.grib2 2026-04-30 20:43 502K
20260430T18Z_MSC_RDPS_WindV_IsbL-0750_RLatLon0.09_PT016H.grib2 2026-04-30 20:43 526K
20260430T18Z_MSC_RDPS_WindV_IsbL-0800_RLatLon0.09_PT016H.grib2 2026-04-30 20:43 565K
20260430T18Z_MSC_RDPS_WindV_IsbL-0850_RLatLon0.09_PT016H.grib2 2026-04-30 20:43 617K
20260430T18Z_MSC_RDPS_WindV_IsbL-0875_RLatLon0.09_PT016H.grib2 2026-04-30 20:43 636K
20260430T18Z_MSC_RDPS_WindV_IsbL-0900_RLatLon0.09_PT016H.grib2 2026-04-30 20:43 786K
20260430T18Z_MSC_RDPS_WindV_IsbL-0925_RLatLon0.09_PT016H.grib2 2026-04-30 20:43 796K
20260430T18Z_MSC_RDPS_WindV_IsbL-0950_RLatLon0.09_PT016H.grib2 2026-04-30 20:43 797K
20260430T18Z_MSC_RDPS_WindV_IsbL-0970_RLatLon0.09_PT016H.grib2 2026-04-30 20:43 795K
20260430T18Z_MSC_RDPS_WindV_IsbL-0985_RLatLon0.09_PT016H.grib2 2026-04-30 20:43 789K
20260430T18Z_MSC_RDPS_WindV_IsbL-1000_RLatLon0.09_PT016H.grib2 2026-04-30 20:43 829K
20260430T18Z_MSC_RDPS_WindV_IsbL-1015_RLatLon0.09_PT016H.grib2 2026-04-30 20:43 823K